Location: Campillo
(40.8621°N, 4.2488°W)
Time: 15:12:38
(UTC+00:00)

Cosmos 1777 Rocket - Pass Details

Date: 30 September 2021
Orbit: 759 x 775 km, 74.0° (Epoch: 18 October)

Event Time Altitude Azimuth Distance (km) Brightness Sun altitude
Rises 03:52:41 0° 348° (NNW) 3,227 7.3 -26.8°
Reaches altitude 10° 03:55:16 10° 357° (N) 2,297 6.7 -26.3°
Maximum altitude 04:00:02 35° 63° (ENE) 1,208 5.5 -25.5°
Drops below altitude 10° 04:04:46 10° 130° (SE) 2,287 6.8 -24.6°
Sets 04:07:19 0° 139° (SE) 3,210 7.5 -24.2°
